User: anonymous   Login
Location: Seminole
(32.7190°N, 102.6440°W)
Time: 20:50:28
(UTC-05:00)
Language:

Meteor 2-10 - Orbit

View from above orbital plane
View from above orbital plane
View from above satellite
View from above satellite

Ground track
Ground track

The orbit data is extracted from the following two-line orbital elements,

1 14452U 83109A   18172.78434143  .00000066  00000-0  20901-4 0  9998
2 14452  81.1630  63.2586 0091771  29.3818 331.2476 14.26457941801719
Epoch (UTC): 21 June 2018 18:49:27
Eccentricity: 0.0091771
inclination: 81.1630°
perigee height: 737 km
apogee height: 869 km
right ascension of ascending node: 63.2586°
argument of perigee: 29.3818°
revolutions per day: 14.26457941
mean anomaly at epoch: 331.2476°
orbit number at epoch: 80171

The dashed part of the orbit path shows where the satellite is in the earth's shadow,  

DLR